Year,Month,Day,Hour,Minute,Value (Times are PST for temperature in C)
2008,05,16,00,00,9.30
2008,05,16,00,01,9.30
2008,05,16,00,02,9.30
2008,05,16,00,03,9.30
2008,05,16,00,04,9.20
2008,05,16,00,05,9.20
2008,05,16,00,06,9.20
2008,05,16,00,07,9.20
2008,05,16,00,08,9.20
2008,05,16,00,09,9.20
2008,05,16,00,10,9.20
2008,05,16,00,11,9.20
2008,05,16,00,12,9.20
2008,05,16,00,13,9.10
2008,05,16,00,14,9.10
2008,05,16,00,15,9.10
2008,05,16,00,16,9.10
2008,05,16,00,17,9.00
2008,05,16,00,18,9.00
2008,05,16,00,19,9.00
2008,05,16,00,20,9.00
2008,05,16,00,21,9.00
2008,05,16,00,22,9.00
2008,05,16,00,23,9.00
2008,05,16,00,24,9.00
2008,05,16,00,25,9.00
2008,05,16,00,26,9.00
2008,05,16,00,27,8.90
2008,05,16,00,28,8.90
2008,05,16,00,29,8.90
2008,05,16,00,30,8.90
2008,05,16,00,31,8.90
2008,05,16,00,32,8.90
2008,05,16,00,33,8.90
2008,05,16,00,34,8.80
2008,05,16,00,35,8.80
2008,05,16,00,36,8.80
2008,05,16,00,37,8.80
2008,05,16,00,38,8.80
2008,05,16,00,39,8.80
2008,05,16,00,40,8.70
2008,05,16,00,41,8.70
2008,05,16,00,42,8.70
2008,05,16,00,43,8.70
2008,05,16,00,44,8.70
2008,05,16,00,45,8.80
2008,05,16,00,46,8.80
2008,05,16,00,47,8.80
2008,05,16,00,48,8.70
2008,05,16,00,49,8.70
2008,05,16,00,50,8.70
2008,05,16,00,51,8.70
2008,05,16,00,52,8.70
2008,05,16,00,53,8.70
2008,05,16,00,54,8.60
2008,05,16,00,55,8.60
2008,05,16,00,56,8.60
2008,05,16,00,57,8.60
2008,05,16,00,58,8.60
2008,05,16,00,59,8.60
2008,05,16,01,00,8.60
2008,05,16,01,01,8.50
2008,05,16,01,02,8.50
2008,05,16,01,03,8.50
2008,05,16,01,04,8.50
2008,05,16,01,05,8.40
2008,05,16,01,06,8.40
2008,05,16,01,07,8.40
2008,05,16,01,08,8.40
2008,05,16,01,09,8.40
2008,05,16,01,10,8.40
2008,05,16,01,11,8.40
2008,05,16,01,12,8.40
2008,05,16,01,13,8.30
2008,05,16,01,14,8.30
2008,05,16,01,15,8.30
2008,05,16,01,16,8.30
2008,05,16,01,17,8.30
2008,05,16,01,18,8.30
2008,05,16,01,19,8.30
2008,05,16,01,20,8.30
2008,05,16,01,21,8.30
2008,05,16,01,22,8.20
2008,05,16,01,23,8.20
2008,05,16,01,24,8.20
2008,05,16,01,25,8.20
2008,05,16,01,26,8.30
2008,05,16,01,27,8.30
2008,05,16,01,28,8.20
2008,05,16,01,29,8.20
2008,05,16,01,30,8.20
2008,05,16,01,31,8.20
2008,05,16,01,32,8.20
2008,05,16,01,33,8.20
2008,05,16,01,34,8.10
2008,05,16,01,35,8.10
2008,05,16,01,36,8.10
2008,05,16,01,37,8.10
2008,05,16,01,38,8.10
2008,05,16,01,39,8.00
2008,05,16,01,40,8.00
2008,05,16,01,41,8.00
2008,05,16,01,42,8.00
2008,05,16,01,43,8.00
2008,05,16,01,44,8.00
2008,05,16,01,45,8.00
2008,05,16,01,46,8.00
2008,05,16,01,47,8.00
2008,05,16,01,48,8.00
2008,05,16,01,49,8.00
2008,05,16,01,50,7.90
2008,05,16,01,51,8.00
2008,05,16,01,52,8.00
2008,05,16,01,53,8.00
2008,05,16,01,54,8.00
2008,05,16,01,55,8.10
2008,05,16,01,56,8.10
2008,05,16,01,57,8.10
2008,05,16,01,58,8.10
2008,05,16,01,59,8.10
2008,05,16,02,00,8.10
2008,05,16,02,01,8.00
2008,05,16,02,02,8.00
2008,05,16,02,03,8.00
2008,05,16,02,04,7.90
2008,05,16,02,05,7.90
2008,05,16,02,06,7.90
2008,05,16,02,07,7.90
2008,05,16,02,08,7.80
2008,05,16,02,09,7.80
2008,05,16,02,10,7.80
2008,05,16,02,11,7.80
2008,05,16,02,12,7.80
2008,05,16,02,13,7.80
2008,05,16,02,14,7.80
2008,05,16,02,15,7.80
2008,05,16,02,16,7.80
2008,05,16,02,17,7.80
2008,05,16,02,18,7.80
2008,05,16,02,19,7.80
2008,05,16,02,20,7.80
2008,05,16,02,21,7.80
2008,05,16,02,22,7.80
2008,05,16,02,23,7.80
2008,05,16,02,24,7.80
2008,05,16,02,25,7.80
2008,05,16,02,26,7.80
2008,05,16,02,27,7.80
2008,05,16,02,28,7.80
2008,05,16,02,29,7.80
2008,05,16,02,30,7.80
2008,05,16,02,31,7.80
2008,05,16,02,32,7.70
2008,05,16,02,33,7.70
2008,05,16,02,34,7.70
2008,05,16,02,35,7.70
2008,05,16,02,36,7.70
2008,05,16,02,37,7.70
2008,05,16,02,38,7.70
2008,05,16,02,39,7.60
2008,05,16,02,40,7.60
2008,05,16,02,41,7.60
2008,05,16,02,42,7.60
2008,05,16,02,43,7.60
2008,05,16,02,44,7.60
2008,05,16,02,45,7.60
2008,05,16,02,46,7.60
2008,05,16,02,47,7.60
2008,05,16,02,48,7.60
2008,05,16,02,49,7.60
2008,05,16,02,50,7.60
2008,05,16,02,51,7.60
2008,05,16,02,52,7.60
2008,05,16,02,53,7.60
2008,05,16,02,54,7.50
2008,05,16,02,55,7.50
2008,05,16,02,56,7.50
2008,05,16,02,57,7.40
2008,05,16,02,58,7.40
2008,05,16,02,59,7.40
2008,05,16,03,00,7.40
2008,05,16,03,01,7.40
2008,05,16,03,02,7.40
2008,05,16,03,03,7.40
2008,05,16,03,04,7.40
2008,05,16,03,05,7.40
2008,05,16,03,06,7.40
2008,05,16,03,07,7.40
2008,05,16,03,08,7.40
2008,05,16,03,09,7.40
2008,05,16,03,10,7.40
2008,05,16,03,11,7.40
2008,05,16,03,12,7.30
2008,05,16,03,13,7.30
2008,05,16,03,14,7.30
2008,05,16,03,15,7.30
2008,05,16,03,16,7.30
2008,05,16,03,17,7.30
2008,05,16,03,18,7.30
2008,05,16,03,19,7.30
2008,05,16,03,20,7.30
2008,05,16,03,21,7.30
2008,05,16,03,22,7.30
2008,05,16,03,23,7.30
2008,05,16,03,24,7.30
2008,05,16,03,25,7.30
2008,05,16,03,26,7.30
2008,05,16,03,27,7.40
2008,05,16,03,28,7.40
2008,05,16,03,29,7.40
2008,05,16,03,30,7.40
2008,05,16,03,31,7.40
2008,05,16,03,32,7.40
2008,05,16,03,33,7.40
2008,05,16,03,34,7.40
2008,05,16,03,35,7.30
2008,05,16,03,36,7.30
2008,05,16,03,37,7.30
2008,05,16,03,38,7.30
2008,05,16,03,39,7.30
2008,05,16,03,40,7.30
2008,05,16,03,41,7.30
2008,05,16,03,42,7.30
2008,05,16,03,43,7.30
2008,05,16,03,44,7.30
2008,05,16,03,45,7.30
2008,05,16,03,46,7.30
2008,05,16,03,47,7.30
2008,05,16,03,48,7.30
2008,05,16,03,49,7.30
2008,05,16,03,50,7.30
2008,05,16,03,51,7.30
2008,05,16,03,52,7.20
2008,05,16,03,53,7.20
2008,05,16,03,54,7.20
2008,05,16,03,55,7.20
2008,05,16,03,56,7.20
2008,05,16,03,57,7.20
2008,05,16,03,58,7.20
2008,05,16,03,59,7.20
2008,05,16,04,00,7.20
2008,05,16,04,01,7.20
2008,05,16,04,02,7.20
2008,05,16,04,03,7.20
2008,05,16,04,04,7.20
2008,05,16,04,05,7.20
2008,05,16,04,06,7.20
2008,05,16,04,07,7.20
2008,05,16,04,08,7.20
2008,05,16,04,09,7.20
2008,05,16,04,10,7.20
2008,05,16,04,11,7.20
2008,05,16,04,12,7.20
2008,05,16,04,13,7.20
2008,05,16,04,14,7.20
2008,05,16,04,15,7.20
2008,05,16,04,16,7.20
2008,05,16,04,17,7.20
2008,05,16,04,18,7.20
2008,05,16,04,19,7.20
2008,05,16,04,20,7.20
2008,05,16,04,21,7.20
2008,05,16,04,22,7.20
2008,05,16,04,23,7.20
2008,05,16,04,24,7.20
2008,05,16,04,25,7.20
2008,05,16,04,26,7.20
2008,05,16,04,27,7.20
2008,05,16,04,28,7.20
2008,05,16,04,29,7.20
2008,05,16,04,30,7.20
2008,05,16,04,31,7.10
2008,05,16,04,32,7.10
2008,05,16,04,33,7.10
2008,05,16,04,34,7.10
2008,05,16,04,35,7.10
2008,05,16,04,36,7.10
2008,05,16,04,37,7.10
2008,05,16,04,38,7.20
2008,05,16,04,39,7.20
2008,05,16,04,40,7.20
2008,05,16,04,41,7.20
2008,05,16,04,42,7.20
2008,05,16,04,43,7.20
2008,05,16,04,44,7.20
2008,05,16,04,45,7.20
2008,05,16,04,46,7.10
2008,05,16,04,47,7.10
2008,05,16,04,48,7.10
2008,05,16,04,49,7.10
2008,05,16,04,50,7.10
2008,05,16,04,51,7.10
2008,05,16,04,52,7.10
2008,05,16,04,53,7.10
2008,05,16,04,54,7.10
2008,05,16,04,55,7.10
2008,05,16,04,56,7.10
2008,05,16,04,57,7.10
2008,05,16,04,58,7.10
2008,05,16,04,59,7.10
2008,05,16,05,00,7.10
2008,05,16,05,01,7.10
2008,05,16,05,02,7.10
2008,05,16,05,03,7.10
2008,05,16,05,04,7.10
2008,05,16,05,05,7.10
2008,05,16,05,06,7.10
2008,05,16,05,07,7.00
2008,05,16,05,08,7.00
2008,05,16,05,09,7.00
2008,05,16,05,10,7.00
2008,05,16,05,11,7.00
2008,05,16,05,12,6.90
2008,05,16,05,13,6.90
2008,05,16,05,14,6.90
2008,05,16,05,15,6.90
2008,05,16,05,16,6.90
2008,05,16,05,17,6.90
2008,05,16,05,18,6.90
2008,05,16,05,19,6.90
2008,05,16,05,20,6.90
2008,05,16,05,21,6.90
2008,05,16,05,22,6.90
2008,05,16,05,23,6.90
2008,05,16,05,24,6.90
2008,05,16,05,25,6.90
2008,05,16,05,26,6.90
2008,05,16,05,27,6.90
2008,05,16,05,28,6.90
2008,05,16,05,29,6.90
2008,05,16,05,30,6.90
2008,05,16,05,31,6.90
2008,05,16,05,32,6.90
2008,05,16,05,33,6.90
2008,05,16,05,34,6.90
2008,05,16,05,35,6.90
2008,05,16,05,36,6.90
2008,05,16,05,37,6.90
2008,05,16,05,38,6.90
2008,05,16,05,39,6.90
2008,05,16,05,40,6.90
2008,05,16,05,41,6.90
2008,05,16,05,42,6.90
2008,05,16,05,43,6.90
2008,05,16,05,44,6.90
2008,05,16,05,45,6.90
2008,05,16,05,46,6.90
2008,05,16,05,47,6.90
2008,05,16,05,48,6.90
2008,05,16,05,49,6.90
2008,05,16,05,50,6.90
2008,05,16,05,51,6.90
2008,05,16,05,52,6.90
2008,05,16,05,53,6.90
2008,05,16,05,54,6.90
2008,05,16,05,55,7.00
2008,05,16,05,56,7.00
2008,05,16,05,57,7.10
2008,05,16,05,58,7.20
2008,05,16,05,59,7.20
2008,05,16,06,00,7.20
2008,05,16,06,01,7.30
2008,05,16,06,02,7.30
2008,05,16,06,03,7.30
2008,05,16,06,04,7.30
2008,05,16,06,05,7.30
2008,05,16,06,06,7.30
2008,05,16,06,07,7.40
2008,05,16,06,08,7.40
2008,05,16,06,09,7.40
2008,05,16,06,10,7.40
2008,05,16,06,11,7.40
2008,05,16,06,12,7.40
2008,05,16,06,13,7.40
2008,05,16,06,14,7.40
2008,05,16,06,15,7.40
2008,05,16,06,16,7.40
2008,05,16,06,17,7.40
2008,05,16,06,18,7.30
2008,05,16,06,19,7.30
2008,05,16,06,20,7.30
2008,05,16,06,21,7.30
2008,05,16,06,22,7.30
2008,05,16,06,23,7.30
2008,05,16,06,24,7.30
2008,05,16,06,25,7.30
2008,05,16,06,26,7.30
2008,05,16,06,27,7.30
2008,05,16,06,28,7.30
2008,05,16,06,29,7.30
2008,05,16,06,30,7.30
2008,05,16,06,31,7.30
2008,05,16,06,32,7.40
2008,05,16,06,33,7.40
2008,05,16,06,34,7.40
2008,05,16,06,35,7.50
2008,05,16,06,36,7.50
2008,05,16,06,37,7.60
2008,05,16,06,38,7.60
2008,05,16,06,39,7.70
2008,05,16,06,40,7.70
2008,05,16,06,41,7.70
2008,05,16,06,42,7.80
2008,05,16,06,43,7.80
2008,05,16,06,44,7.90
2008,05,16,06,45,7.90
2008,05,16,06,46,8.00
2008,05,16,06,47,8.00
2008,05,16,06,48,8.10
2008,05,16,06,49,8.20
2008,05,16,06,50,8.20
2008,05,16,06,51,8.20
2008,05,16,06,52,8.30
2008,05,16,06,53,8.50
2008,05,16,06,54,8.60
2008,05,16,06,55,8.90
2008,05,16,06,56,9.10
2008,05,16,06,57,9.30
2008,05,16,06,58,9.40
2008,05,16,06,59,9.60
2008,05,16,07,00,9.70
2008,05,16,07,01,9.70
2008,05,16,07,02,9.80
2008,05,16,07,03,9.90
2008,05,16,07,04,9.90
2008,05,16,07,05,10.00
2008,05,16,07,06,10.10
2008,05,16,07,07,10.10
2008,05,16,07,08,10.10
2008,05,16,07,09,10.20
2008,05,16,07,10,10.20
2008,05,16,07,11,10.30
2008,05,16,07,12,10.30
2008,05,16,07,13,10.30
2008,05,16,07,14,10.40
2008,05,16,07,15,10.40
2008,05,16,07,16,10.50
2008,05,16,07,17,10.60
2008,05,16,07,18,10.70
2008,05,16,07,19,10.80
2008,05,16,07,20,10.80
2008,05,16,07,21,10.90
2008,05,16,07,22,10.90
2008,05,16,07,23,11.00
2008,05,16,07,24,11.10
2008,05,16,07,25,11.20
2008,05,16,07,26,11.20
2008,05,16,07,27,11.30
2008,05,16,07,28,11.30
2008,05,16,07,29,11.40
2008,05,16,07,30,11.40
2008,05,16,07,31,11.50
2008,05,16,07,32,11.60
2008,05,16,07,33,11.70
2008,05,16,07,34,11.70
2008,05,16,07,35,11.80
2008,05,16,07,36,11.90
2008,05,16,07,37,11.90
2008,05,16,07,38,12.00
2008,05,16,07,39,12.10
2008,05,16,07,40,12.10
2008,05,16,07,41,12.20
2008,05,16,07,42,12.20
2008,05,16,07,43,12.20
2008,05,16,07,44,12.30
2008,05,16,07,45,12.30
2008,05,16,07,46,12.40
2008,05,16,07,47,12.40
2008,05,16,07,48,12.50
2008,05,16,07,49,12.60
2008,05,16,07,50,12.70
2008,05,16,07,51,12.70
2008,05,16,07,52,12.80
2008,05,16,07,53,12.90
2008,05,16,07,54,13.00
2008,05,16,07,55,13.10
2008,05,16,07,56,13.20
2008,05,16,07,57,13.20
2008,05,16,07,58,13.30
2008,05,16,07,59,13.40
2008,05,16,08,00,13.50
2008,05,16,08,01,13.60
2008,05,16,08,02,13.70
2008,05,16,08,03,13.80
2008,05,16,08,04,13.90
2008,05,16,08,05,14.00
2008,05,16,08,06,14.10
2008,05,16,08,07,14.10
2008,05,16,08,08,14.20
2008,05,16,08,09,14.30
2008,05,16,08,10,14.40
2008,05,16,08,11,14.50
2008,05,16,08,12,14.70
2008,05,16,08,13,14.90
2008,05,16,08,14,15.00
2008,05,16,08,15,15.00
2008,05,16,08,16,15.10
2008,05,16,08,17,15.30
2008,05,16,08,18,15.40
2008,05,16,08,19,15.50
2008,05,16,08,20,15.70
2008,05,16,08,21,15.80
2008,05,16,08,22,15.90
2008,05,16,08,23,16.00
2008,05,16,08,24,16.00
2008,05,16,08,25,16.10
2008,05,16,08,26,16.10
2008,05,16,08,27,16.20
2008,05,16,08,28,16.20
2008,05,16,08,29,16.30
2008,05,16,08,30,16.30
2008,05,16,08,31,16.30
2008,05,16,08,32,16.40
2008,05,16,08,33,16.50
2008,05,16,08,34,16.60
2008,05,16,08,35,16.60
2008,05,16,08,36,16.70
2008,05,16,08,37,16.80
2008,05,16,08,38,16.90
2008,05,16,08,39,16.90
2008,05,16,08,40,17.00
2008,05,16,08,41,17.00
2008,05,16,08,42,17.10
2008,05,16,08,43,17.20
2008,05,16,08,44,17.30
2008,05,16,08,45,17.30
2008,05,16,08,46,17.40
2008,05,16,08,47,17.50
2008,05,16,08,48,17.60
2008,05,16,08,49,17.60
2008,05,16,08,50,17.70
2008,05,16,08,51,17.70
2008,05,16,08,52,17.80
2008,05,16,08,53,17.80
2008,05,16,08,54,17.80
2008,05,16,08,55,17.80
2008,05,16,08,56,17.80
2008,05,16,08,57,17.90
2008,05,16,08,58,17.90
2008,05,16,08,59,18.00
2008,05,16,09,00,18.10
2008,05,16,09,01,18.10
2008,05,16,09,02,18.20
2008,05,16,09,03,18.20
2008,05,16,09,04,18.30
2008,05,16,09,05,18.30
2008,05,16,09,06,18.30
2008,05,16,09,07,18.30
2008,05,16,09,08,18.40
2008,05,16,09,09,18.40
2008,05,16,09,10,18.40
2008,05,16,09,11,18.50
2008,05,16,09,12,18.60
2008,05,16,09,13,18.60
2008,05,16,09,14,18.70
2008,05,16,09,15,18.80
2008,05,16,09,16,18.90
2008,05,16,09,17,18.90
2008,05,16,09,18,19.00
2008,05,16,09,19,19.00
2008,05,16,09,20,19.10
2008,05,16,09,21,19.10
2008,05,16,09,22,19.10
2008,05,16,09,23,19.10
2008,05,16,09,24,19.20
2008,05,16,09,25,19.30
2008,05,16,09,26,19.30
2008,05,16,09,27,19.30
2008,05,16,09,28,19.30
2008,05,16,09,29,19.40
2008,05,16,09,30,19.50
2008,05,16,09,31,19.60
2008,05,16,09,32,19.60
2008,05,16,09,33,19.60
2008,05,16,09,34,19.60
2008,05,16,09,35,19.70
2008,05,16,09,36,19.70
2008,05,16,09,37,19.80
2008,05,16,09,38,19.80
2008,05,16,09,39,19.80
2008,05,16,09,40,19.70
2008,05,16,09,41,19.70
2008,05,16,09,42,19.70
2008,05,16,09,43,19.70
2008,05,16,09,44,19.80
2008,05,16,09,45,19.80
2008,05,16,09,46,19.80
2008,05,16,09,47,19.70
2008,05,16,09,48,19.70
2008,05,16,09,49,19.70
2008,05,16,09,50,19.70
2008,05,16,09,51,19.70
2008,05,16,09,52,19.80
2008,05,16,09,53,19.80
2008,05,16,09,54,19.90
2008,05,16,09,55,20.00
2008,05,16,09,56,20.00
2008,05,16,09,57,20.10
2008,05,16,09,58,20.20
2008,05,16,09,59,20.20
2008,05,16,10,00,20.30
2008,05,16,10,01,20.40
2008,05,16,10,02,20.40
2008,05,16,10,03,20.40
2008,05,16,10,04,20.50
2008,05,16,10,05,20.60
2008,05,16,10,06,20.70
2008,05,16,10,07,20.80
2008,05,16,10,08,20.90
2008,05,16,10,09,20.90
2008,05,16,10,10,20.90
2008,05,16,10,11,20.90
2008,05,16,10,12,20.90
2008,05,16,10,13,20.90
2008,05,16,10,14,20.90
2008,05,16,10,15,20.90
2008,05,16,10,16,20.90
2008,05,16,10,17,20.90
2008,05,16,10,18,20.90
2008,05,16,10,19,20.90
2008,05,16,10,20,20.90
2008,05,16,10,21,21.00
2008,05,16,10,22,21.10
2008,05,16,10,23,21.10
2008,05,16,10,24,21.20
2008,05,16,10,25,21.20
2008,05,16,10,26,21.20
2008,05,16,10,27,21.20
2008,05,16,10,28,21.20
2008,05,16,10,29,21.30
2008,05,16,10,30,21.30
2008,05,16,10,31,21.30
2008,05,16,10,32,21.40
2008,05,16,10,33,21.40
2008,05,16,10,34,21.50
2008,05,16,10,35,21.50
2008,05,16,10,36,21.40
2008,05,16,10,37,21.50
2008,05,16,10,38,21.50
2008,05,16,10,39,21.50
2008,05,16,10,40,21.50
2008,05,16,10,41,21.40
2008,05,16,10,42,21.40
2008,05,16,10,43,21.40
2008,05,16,10,44,21.40
2008,05,16,10,45,21.40
2008,05,16,10,46,21.40
2008,05,16,10,47,21.40
2008,05,16,10,48,21.40
2008,05,16,10,49,21.40
2008,05,16,10,50,21.30
2008,05,16,10,51,21.40
2008,05,16,10,52,21.40
2008,05,16,10,53,21.50
2008,05,16,10,54,21.50
2008,05,16,10,55,21.50
2008,05,16,10,56,21.60
2008,05,16,10,57,21.70
2008,05,16,10,58,21.70
2008,05,16,10,59,21.60
2008,05,16,11,00,21.70
2008,05,16,11,01,21.70
2008,05,16,11,02,21.80
2008,05,16,11,03,21.90
2008,05,16,11,04,21.90
2008,05,16,11,05,21.90
2008,05,16,11,06,21.80
2008,05,16,11,07,21.80
2008,05,16,11,08,21.80
2008,05,16,11,09,21.80
2008,05,16,11,10,21.80
2008,05,16,11,11,21.90
2008,05,16,11,12,21.90
2008,05,16,11,13,22.00
2008,05,16,11,14,22.10
2008,05,16,11,15,22.10
2008,05,16,11,16,22.10
2008,05,16,11,17,22.20
2008,05,16,11,18,22.20
2008,05,16,11,19,22.30
2008,05,16,11,20,22.40
2008,05,16,11,21,22.40
2008,05,16,11,22,22.50
2008,05,16,11,23,22.60
2008,05,16,11,24,22.70
2008,05,16,11,25,22.80
2008,05,16,11,26,22.80
2008,05,16,11,27,22.90
2008,05,16,11,28,22.90
2008,05,16,11,29,22.90
2008,05,16,11,30,23.00
2008,05,16,11,31,23.10
2008,05,16,11,32,23.20
2008,05,16,11,33,23.20
2008,05,16,11,34,23.30
2008,05,16,11,35,23.30
2008,05,16,11,36,23.40
2008,05,16,11,37,23.30
2008,05,16,11,38,23.40
2008,05,16,11,39,23.40
2008,05,16,11,40,23.40
2008,05,16,11,41,23.40
2008,05,16,11,42,23.40
2008,05,16,11,43,23.30
2008,05,16,11,44,23.30
2008,05,16,11,45,23.30
2008,05,16,11,46,23.40
2008,05,16,11,47,23.50
2008,05,16,11,48,23.50
2008,05,16,11,49,23.50
2008,05,16,11,50,23.50
2008,05,16,11,51,23.50
2008,05,16,11,52,23.40
2008,05,16,11,53,23.50
2008,05,16,11,54,23.50
2008,05,16,11,55,23.60
2008,05,16,11,56,23.70
2008,05,16,11,57,23.80
2008,05,16,11,58,24.00
2008,05,16,11,59,24.00
2008,05,16,12,00,24.10
2008,05,16,12,01,24.10
2008,05,16,12,02,24.10
2008,05,16,12,03,24.10
2008,05,16,12,04,24.10
2008,05,16,12,05,24.20
2008,05,16,12,06,24.20
2008,05,16,12,07,24.30
2008,05,16,12,08,24.30
2008,05,16,12,09,24.40
2008,05,16,12,10,24.40
2008,05,16,12,11,24.40
2008,05,16,12,12,24.40
2008,05,16,12,13,24.50
2008,05,16,12,14,24.50
2008,05,16,12,15,24.60
2008,05,16,12,16,24.70
2008,05,16,12,17,24.70
2008,05,16,12,18,24.80
2008,05,16,12,19,24.80
2008,05,16,12,20,24.80
2008,05,16,12,21,24.70
2008,05,16,12,22,24.70
2008,05,16,12,23,24.60
2008,05,16,12,24,24.60
2008,05,16,12,25,24.60
2008,05,16,12,26,24.50
2008,05,16,12,27,24.40
2008,05,16,12,28,24.40
2008,05,16,12,29,24.40
2008,05,16,12,30,24.40
2008,05,16,12,31,24.30
2008,05,16,12,32,24.30
2008,05,16,12,33,24.20
2008,05,16,12,34,24.10
2008,05,16,12,35,24.10
2008,05,16,12,36,24.10
2008,05,16,12,37,24.20
2008,05,16,12,38,24.20
2008,05,16,12,39,24.30
2008,05,16,12,40,24.40
2008,05,16,12,41,24.40
2008,05,16,12,42,24.40
2008,05,16,12,43,24.40
2008,05,16,12,44,24.40
2008,05,16,12,45,24.40
2008,05,16,12,46,24.50
2008,05,16,12,47,24.50
2008,05,16,12,48,24.60
2008,05,16,12,49,24.60
2008,05,16,12,50,24.60
2008,05,16,12,51,24.60
2008,05,16,12,52,24.50
2008,05,16,12,53,24.60
2008,05,16,12,54,24.70
2008,05,16,12,55,24.70
2008,05,16,12,56,24.60
2008,05,16,12,57,24.50
2008,05,16,12,58,24.40
2008,05,16,12,59,24.40
2008,05,16,13,00,24.40
2008,05,16,13,01,24.30
2008,05,16,13,02,24.20
2008,05,16,13,03,24.20
2008,05,16,13,04,24.10
2008,05,16,13,05,24.10
2008,05,16,13,06,24.10
2008,05,16,13,07,24.20
2008,05,16,13,08,24.30
2008,05,16,13,09,24.40
2008,05,16,13,10,24.50
2008,05,16,13,11,24.60
2008,05,16,13,12,24.60
2008,05,16,13,13,24.70
2008,05,16,13,14,24.80
2008,05,16,13,15,24.90
2008,05,16,13,16,24.90
2008,05,16,13,17,24.90
2008,05,16,13,18,24.80
2008,05,16,13,19,24.80
2008,05,16,13,20,24.70
2008,05,16,13,21,24.60
2008,05,16,13,22,24.60
2008,05,16,13,23,24.60
2008,05,16,13,24,24.60
2008,05,16,13,25,24.70
2008,05,16,13,26,24.70
2008,05,16,13,27,24.80
2008,05,16,13,28,25.00
2008,05,16,13,29,25.10
2008,05,16,13,30,25.20
2008,05,16,13,31,25.20
2008,05,16,13,32,25.30
2008,05,16,13,33,25.30
2008,05,16,13,34,25.30
2008,05,16,13,35,25.30
2008,05,16,13,36,25.30
2008,05,16,13,37,25.40
2008,05,16,13,38,25.30
2008,05,16,13,39,25.30
2008,05,16,13,40,25.20
2008,05,16,13,41,25.20
2008,05,16,13,42,25.20
2008,05,16,13,43,25.10
2008,05,16,13,44,25.10
2008,05,16,13,45,25.10
2008,05,16,13,46,25.10
2008,05,16,13,47,25.10
2008,05,16,13,48,25.10
2008,05,16,13,49,25.20
2008,05,16,13,50,25.20
2008,05,16,13,51,25.10
2008,05,16,13,52,25.00
2008,05,16,13,53,25.00
2008,05,16,13,54,24.90
2008,05,16,13,55,24.90
2008,05,16,13,56,24.90
2008,05,16,13,57,24.90
2008,05,16,13,58,24.80
2008,05,16,13,59,24.80
2008,05,16,14,00,24.70
2008,05,16,14,01,24.70
2008,05,16,14,02,24.60
2008,05,16,14,03,24.50
2008,05,16,14,04,24.50
2008,05,16,14,05,24.50
2008,05,16,14,06,24.50
2008,05,16,14,07,24.50
2008,05,16,14,08,24.50
2008,05,16,14,09,24.60
2008,05,16,14,10,24.60
2008,05,16,14,11,24.60
2008,05,16,14,12,24.70
2008,05,16,14,13,24.80
2008,05,16,14,14,24.80
2008,05,16,14,15,24.80
2008,05,16,14,16,24.80
2008,05,16,14,17,24.90
2008,05,16,14,18,25.00
2008,05,16,14,19,25.10
2008,05,16,14,20,25.20
2008,05,16,14,21,25.30
2008,05,16,14,22,25.50
2008,05,16,14,23,25.70
2008,05,16,14,24,25.70
2008,05,16,14,25,25.70
2008,05,16,14,26,25.60
2008,05,16,14,27,25.60
2008,05,16,14,28,25.50
2008,05,16,14,29,25.40
2008,05,16,14,30,25.30
2008,05,16,14,31,25.30
2008,05,16,14,32,25.30
2008,05,16,14,33,25.40
2008,05,16,14,34,25.40
2008,05,16,14,35,25.40
2008,05,16,14,36,25.40
2008,05,16,14,37,25.40
2008,05,16,14,38,25.40
2008,05,16,14,39,25.50
2008,05,16,14,40,25.70
2008,05,16,14,41,25.80
2008,05,16,14,42,26.00
2008,05,16,14,43,26.10
2008,05,16,14,44,26.30
2008,05,16,14,45,26.40
2008,05,16,14,46,26.60
2008,05,16,14,47,26.70
2008,05,16,14,48,26.80
2008,05,16,14,49,26.70
2008,05,16,14,50,26.70
2008,05,16,14,51,26.70
2008,05,16,14,52,26.70
2008,05,16,14,53,26.60
2008,05,16,14,54,26.50
2008,05,16,14,55,26.40
2008,05,16,14,56,26.30
2008,05,16,14,57,26.30
2008,05,16,14,58,26.30
2008,05,16,14,59,26.30
2008,05,16,15,00,26.40
2008,05,16,15,01,26.40
2008,05,16,15,02,26.40
2008,05,16,15,03,26.40
2008,05,16,15,04,26.40
2008,05,16,15,05,26.50
2008,05,16,15,06,26.60
2008,05,16,15,07,26.70
2008,05,16,15,08,26.80
2008,05,16,15,09,26.80
2008,05,16,15,10,26.80
2008,05,16,15,11,26.90
2008,05,16,15,12,27.00
2008,05,16,15,13,27.00
2008,05,16,15,14,27.00
2008,05,16,15,15,27.10
2008,05,16,15,16,27.20
2008,05,16,15,17,27.20
2008,05,16,15,18,27.30
2008,05,16,15,19,27.20
2008,05,16,15,20,27.20
2008,05,16,15,21,27.30
2008,05,16,15,22,27.30
2008,05,16,15,23,27.30
2008,05,16,15,24,27.30
2008,05,16,15,25,27.30
2008,05,16,15,26,27.30
2008,05,16,15,27,27.30
2008,05,16,15,28,27.30
2008,05,16,15,29,27.30
2008,05,16,15,30,27.30
2008,05,16,15,31,27.40
2008,05,16,15,32,27.50
2008,05,16,15,33,27.60
2008,05,16,15,34,27.60
2008,05,16,15,35,27.60
2008,05,16,15,36,27.70
2008,05,16,15,37,27.70
2008,05,16,15,38,27.70
2008,05,16,15,39,27.60
2008,05,16,15,40,27.70
2008,05,16,15,41,27.70
2008,05,16,15,42,27.60
2008,05,16,15,43,27.70
2008,05,16,15,44,27.70
2008,05,16,15,45,27.70
2008,05,16,15,46,27.70
2008,05,16,15,47,27.70
2008,05,16,15,48,27.80
2008,05,16,15,49,27.90
2008,05,16,15,50,28.00
2008,05,16,15,51,28.00
2008,05,16,15,52,27.90
2008,05,16,15,53,27.90
2008,05,16,15,54,27.90
2008,05,16,15,55,27.90
2008,05,16,15,56,27.80
2008,05,16,15,57,27.80
2008,05,16,15,58,27.70
2008,05,16,15,59,27.70
2008,05,16,16,00,27.70
2008,05,16,16,01,27.70
2008,05,16,16,02,27.50
2008,05,16,16,03,27.50
2008,05,16,16,04,27.40
2008,05,16,16,05,27.40
2008,05,16,16,06,27.40
2008,05,16,16,07,27.40
2008,05,16,16,08,27.50
2008,05,16,16,09,27.60
2008,05,16,16,10,27.70
2008,05,16,16,11,27.80
2008,05,16,16,12,27.80
2008,05,16,16,13,27.70
2008,05,16,16,14,27.60
2008,05,16,16,15,27.50
2008,05,16,16,16,27.50
2008,05,16,16,17,27.50
2008,05,16,16,18,27.40
2008,05,16,16,19,27.40
2008,05,16,16,20,27.40
2008,05,16,16,21,27.40
2008,05,16,16,22,27.40
2008,05,16,16,23,27.40
2008,05,16,16,24,27.40
2008,05,16,16,25,27.40
2008,05,16,16,26,27.50
2008,05,16,16,27,27.50
2008,05,16,16,28,27.60
2008,05,16,16,29,27.70
2008,05,16,16,30,27.80
2008,05,16,16,31,27.80
2008,05,16,16,32,27.80
2008,05,16,16,33,27.80
2008,05,16,16,34,27.90
2008,05,16,16,35,27.90
2008,05,16,16,36,27.90
2008,05,16,16,37,28.00
2008,05,16,16,38,28.00
2008,05,16,16,39,28.00
2008,05,16,16,40,28.00
2008,05,16,16,41,28.10
2008,05,16,16,42,28.20
2008,05,16,16,43,28.30
2008,05,16,16,44,28.30
2008,05,16,16,45,28.40
2008,05,16,16,46,28.40
2008,05,16,16,47,28.50
2008,05,16,16,48,28.60
2008,05,16,16,49,28.70
2008,05,16,16,50,28.80
2008,05,16,16,51,28.80
2008,05,16,16,52,28.90
2008,05,16,16,53,28.90
2008,05,16,16,54,28.80
2008,05,16,16,55,28.80
2008,05,16,16,56,28.70
2008,05,16,16,57,28.80
2008,05,16,16,58,28.80
2008,05,16,16,59,28.90
2008,05,16,17,00,28.90
2008,05,16,17,01,29.00
2008,05,16,17,02,29.00
2008,05,16,17,03,28.90
2008,05,16,17,04,28.90
2008,05,16,17,05,28.80
2008,05,16,17,06,28.80
2008,05,16,17,07,28.80
2008,05,16,17,08,28.80
2008,05,16,17,09,28.80
2008,05,16,17,10,28.80
2008,05,16,17,11,28.80
2008,05,16,17,12,28.70
2008,05,16,17,13,28.70
2008,05,16,17,14,28.80
2008,05,16,17,15,28.80
2008,05,16,17,16,28.80
2008,05,16,17,17,28.90
2008,05,16,17,18,28.90
2008,05,16,17,19,28.90
2008,05,16,17,20,28.90
2008,05,16,17,21,28.90
2008,05,16,17,22,28.90
2008,05,16,17,23,28.90
2008,05,16,17,24,29.00
2008,05,16,17,25,29.10
2008,05,16,17,26,29.10
2008,05,16,17,27,29.10
2008,05,16,17,28,29.20
2008,05,16,17,29,29.20
2008,05,16,17,30,29.20
2008,05,16,17,31,29.20
2008,05,16,17,32,29.20
2008,05,16,17,33,29.20
2008,05,16,17,34,29.20
2008,05,16,17,35,29.10
2008,05,16,17,36,29.10
2008,05,16,17,37,29.00